User: anonymous   Login
Location: Peebles
(55.6412°N, 3.1714°W)
Time: 03:32:50
(UTC+00:00)
Language:

Resurs 1-3 - Orbit

View from above orbital plane
View from above orbital plane
View from above satellite
View from above satellite

Ground track
Ground track

The orbit data is extracted from the following two-line orbital elements,

1 23342U 94074A   21333.75231302  .00000214  00000-0  35374-4 0  9996
2 23342  97.8562  19.1369 0002244  98.6625 261.4841 14.79502974457998
Epoch (UTC): 29 November 2021 18:03:19
Eccentricity: 0.0002244
inclination: 97.8562°
perigee height: 629 km
apogee height: 632 km
right ascension of ascending node: 19.1369°
argument of perigee: 98.6625°
revolutions per day: 14.79502974
mean anomaly at epoch: 261.4841°
orbit number at epoch: 45799

The dashed part of the orbit path shows where the satellite is in the earth's shadow,  

DLR